| time (UTC) | temp F | wind direction | speed MPH | gust MPH | rain 1hr in | rain 24hr in | rain mn in | humidity % | barometer mb |
| 20260901234014 | 70 | 309 | 3.0 | 6.0 | 0.00 | 0.00 | 0.00 | 59 | 1011.7 |
| 20260901233517 | 70 | 303 | 3.0 | 10.0 | 0.00 | 0.00 | 0.00 | 60 | 1011.7 |
| 20260901233031 | 70 | 28 | 2.0 | 10.0 | 0.00 | 0.00 | 0.00 | 60 | 1011.8 |
| 20260901232508 | 69 | 347 | 1.0 | 6.0 | 0.00 | 0.00 | 0.00 | 61 | 1011.9 |
| 20260901232010 | 69 | 307 | 3.0 | 8.0 | 0.00 | 0.00 | 0.00 | 60 | 1011.9 |
| 20260901231516 | 69 | 312 | 3.0 | 8.0 | 0.00 | 0.00 | 0.00 | 60 | 1011.9 |
| 20260901231009 | 70 | 290 | 3.0 | 6.0 | 0.00 | 0.00 | 0.00 | 60 | 1011.9 |
| 20260901230513 | 69 | 295 | 2.0 | 9.0 | 0.00 | 0.00 | 0.00 | 60 | 1012.0 |
| 20260901230025 | 69 | 305 | 3.0 | 10.0 | 0.00 | 0.00 | 0.00 | 60 | 1012.0 |
| 20260901225514 | 69 | 18 | 3.0 | 10.0 | 0.00 | 0.00 | 0.00 | 60 | 1012.1 |
| 20260901225014 | 69 | 257 | 4.0 | 8.0 | 0.00 | 0.00 | 0.00 | 59 | 1012.1 |
| 20260901224530 | 69 | 65 | 3.0 | 6.0 | 0.00 | 0.00 | 0.00 | 60 | 1012.2 |
| 20260901224016 | 69 | 328 | 3.0 | 6.0 | 0.00 | 0.00 | 0.00 | 60 | 1012.2 |
| 20260901223517 | 69 | 342 | 3.0 | 6.0 | 0.00 | 0.00 | 0.00 | 59 | 1012.2 |
| 20260901223028 | 70 | 297 | 3.0 | 6.0 | 0.00 | 0.00 | 0.00 | 60 | 1012.2 |
| 20260901222518 | 70 | 266 | 1.0 | 7.0 | 0.00 | 0.00 | 0.00 | 60 | 1012.2 |
| 20260901222016 | 70 | 308 | 2.0 | 8.0 | 0.00 | 0.00 | 0.00 | 60 | 1012.2 |
| 20260901221558 | 70 | 35 | 3.0 | 8.0 | 0.00 | 0.00 | 0.00 | 59 | 1012.1 |
| 20260901221020 | 70 | 322 | 2.0 | 7.0 | 0.00 | 0.00 | 0.00 | 60 | 1012.2 |
| 20260901220510 | 70 | 303 | 3.0 | 10.0 | 0.00 | 0.00 | 0.00 | 60 | 1012.1 |
| 20260901220016 | 69 | 359 | 4.0 | 10.0 | 0.00 | 0.00 | 0.00 | 61 | 1012.1 |
| 20260901215514 | 69 | 20 | 3.0 | 6.0 | 0.00 | 0.00 | 0.00 | 61 | 1012.2 |
| 20260901215015 | 68 | 343 | 3.0 | 7.0 | 0.00 | 0.00 | 0.00 | 61 | 1012.3 |
| 20260901214525 | 68 | 40 | 3.0 | 7.0 | 0.00 | 0.00 | 0.00 | 61 | 1012.2 |
| 20260901214013 | 68 | 10 | 3.0 | 6.0 | 0.00 | 0.00 | 0.00 | 61 | 1012.2 |
| 20260901213514 | 68 | 359 | 1.0 | 5.0 | 0.00 | 0.00 | 0.00 | 61 | 1012.3 |
| 20260901213026 | 68 | 26 | 2.0 | 5.0 | 0.00 | 0.00 | 0.00 | 61 | 1012.3 |
| 20260901212516 | 68 | 312 | 2.0 | 8.0 | 0.00 | 0.00 | 0.00 | 61 | 1012.3 |
| 20260901212019 | 68 | 266 | 1.0 | 8.0 | 0.00 | 0.00 | 0.00 | 62 | 1012.3 |
| 20260901211535 | 68 | 51 | 3.0 | 8.0 | 0.00 | 0.00 | 0.00 | 62 | 1012.3 |
| 20260901211017 | 68 | 328 | 2.0 | 8.0 | 0.00 | 0.00 | 0.00 | 61 | 1012.3 |
| 20260901210523 | 68 | 269 | 3.0 | 7.0 | 0.00 | 0.00 | 0.00 | 61 | 1012.4 |
| 20260901210033 | 68 | 306 | 1.0 | 6.0 | 0.00 | 0.00 | 0.00 | 62 | 1012.4 |
| 20260901205519 | 68 | 307 | 2.0 | 6.0 | 0.00 | 0.00 | 0.00 | 62 | 1012.4 |
| 20260901205017 | 68 | 283 | 3.0 | 6.0 | 0.00 | 0.00 | 0.00 | 61 | 1012.3 |
| 20260901204531 | 68 | 233 | 2.0 | 6.0 | 0.00 | 0.00 | 0.00 | 62 | 1012.4 |
| 20260901204014 | 68 | 7 | 2.0 | 6.0 | 0.00 | 0.00 | 0.00 | 63 | 1012.5 |
| 20260901203514 | 68 | 314 | 1.0 | 7.0 | 0.00 | 0.00 | 0.00 | 64 | 1012.5 |
| 20260901203044 | 67 | 191 | 4.0 | 7.0 | 0.00 | 0.00 | 0.00 | 65 | 1012.5 |
| 20260901202516 | 67 | 266 | 2.0 | 5.0 | 0.00 | 0.00 | 0.00 | 65 | 1012.5 |
| 20260901202019 | 67 | 1 | 2.0 | 5.0 | 0.00 | 0.00 | 0.00 | 66 | 1012.5 |
| 20260901201537 | 66 | 34 | 3.0 | 5.0 | 0.00 | 0.00 | 0.00 | 66 | 1012.5 |
| 20260901201014 | 66 | 283 | 1.0 | 4.0 | 0.00 | 0.00 | 0.00 | 68 | 1012.5 |
| 20260901200516 | 66 | 271 | 0.0 | 4.0 | 0.00 | 0.00 | 0.00 | 68 | 1012.6 |
| 20260901200032 | 66 | 271 | 1.0 | 4.0 | 0.00 | 0.00 | 0.00 | 68 | 1012.7 |
| 20260901195520 | 66 | 305 | 1.0 | 3.0 | 0.00 | 0.00 | 0.00 | 67 | 1012.6 |
| 20260901195018 | 67 | 253 | 1.0 | 4.0 | 0.00 | 0.00 | 0.00 | 67 | 1012.6 |
| 20260901194533 | 67 | 357 | 1.0 | 4.0 | 0.00 | 0.00 | 0.00 | 67 | 1012.6 |
| 20260901194023 | 67 | 198 | 1.0 | 4.0 | 0.00 | 0.00 | 0.00 | 67 | 1012.7 |
| 20260901193518 | 67 | 275 | 1.0 | 7.0 | 0.00 | 0.00 | 0.00 | 67 | 1012.7 |
| 20260901193036 | 66 | 314 | 3.0 | 7.0 | 0.00 | 0.00 | 0.00 | 67 | 1012.8 |
| 20260901192513 | 66 | 325 | 1.0 | 5.0 | 0.00 | 0.00 | 0.00 | 67 | 1012.8 |
| 20260901192021 | 66 | 226 | 3.0 | 5.0 | 0.00 | 0.00 | 0.00 | 68 | 1012.9 |
| 20260901191527 | 66 | 243 | 1.0 | 6.0 | 0.00 | 0.00 | 0.00 | 68 | 1013.0 |
| 20260901191017 | 66 | 286 | 3.0 | 6.0 | 0.00 | 0.00 | 0.00 | 68 | 1013.1 |
| 20260901190516 | 66 | 271 | 2.0 | 5.0 | 0.00 | 0.00 | 0.00 | 69 | 1013.1 |
| 20260901190035 | 66 | 321 | 2.0 | 4.0 | 0.00 | 0.00 | 0.00 | 69 | 1013.1 |
| 20260901185520 | 65 | 344 | 1.0 | 5.0 | 0.00 | 0.00 | 0.00 | 69 | 1013.1 |
| 20260901185019 | 65 | 220 | 2.0 | 8.0 | 0.00 | 0.00 | 0.00 | 71 | 1013.1 |
| 20260901184531 | 65 | 307 | 0.0 | 8.0 | 0.00 | 0.00 | 0.00 | 71 | 1013.2 |
| 20260901184020 | 65 | 328 | 1.0 | 5.0 | 0.00 | 0.00 | 0.00 | 72 | 1013.2 |
| 20260901183520 | 64 | 103 | 1.0 | 6.0 | 0.00 | 0.00 | 0.00 | 73 | 1013.2 |
| 20260901183036 | 64 | 307 | 3.0 | 6.0 | 0.00 | 0.00 | 0.00 | 73 | 1013.3 |
| 20260901182520 | 64 | 288 | 2.0 | 5.0 | 0.00 | 0.00 | 0.00 | 74 | 1013.3 |
| 20260901182024 | 64 | 310 | 1.0 | 5.0 | 0.00 | 0.00 | 0.00 | 74 | 1013.2 |
| 20260901181504 | 63 | 301 | 2.0 | 5.0 | 0.00 | 0.00 | 0.00 | 75 | 1013.2 |
| 20260901181003 | 63 | 258 | 1.0 | 5.0 | 0.00 | 0.00 | 0.00 | 76 | 1013.2 |
| 20260901180504 | 63 | 293 | 1.0 | 5.0 | 0.00 | 0.00 | 0.00 | 77 | 1013.2 |
| 20260901180006 | 62 | 248 | 1.0 | 5.0 | 0.00 | 0.00 | 0.00 | 78 | 1013.3 |
| 20260901175507 | 62 | 300 | 1.0 | 5.0 | 0.00 | 0.00 | 0.00 | 79 | 1013.4 |
| 20260901175007 | 62 | 297 | 1.0 | 5.0 | 0.00 | 0.00 | 0.00 | 80 | 1013.5 |
| 20260901174510 | 62 | 280 | 1.0 | 7.0 | 0.00 | 0.00 | 0.00 | 80 | 1013.5 |
| 20260901174008 | 61 | 327 | 1.0 | 7.0 | 0.00 | 0.00 | 0.00 | 81 | 1013.5 |
| 20260901173515 | 61 | 349 | 1.0 | 3.0 | 0.00 | 0.00 | 0.00 | 81 | 1013.4 |
| 20260901173016 | 61 | 298 | 1.0 | 3.0 | 0.00 | 0.00 | 0.00 | 82 | 1013.4 |
| 20260901172513 | 60 | 302 | 0.0 | 3.0 | 0.00 | 0.00 | 0.00 | 84 | 1013.4 |
| 20260901172013 | 60 | 236 | 1.0 | 4.0 | 0.00 | 0.00 | 0.00 | 85 | 1013.3 |
| 20260901171524 | 60 | 293 | 0.0 | 4.0 | 0.00 | 0.00 | 0.00 | 86 | 1013.3 |
| 20260901171012 | 59 | 300 | 2.0 | 4.0 | 0.00 | 0.00 | 0.00 | 86 | 1013.2 |
| 20260901170515 | 59 | 342 | 1.0 | 3.0 | 0.00 | 0.00 | 0.00 | 87 | 1013.2 |
| 20260901170028 | 59 | 305 | 1.0 | 4.0 | 0.00 | 0.00 | 0.00 | 87 | 1013.3 |
| 20260901165503 | 59 | 283 | 1.0 | 6.0 | 0.00 | 0.00 | 0.00 | 87 | 1013.2 |
| 20260901165004 | 59 | 296 | 2.0 | 49.0 | 0.00 | 0.00 | 0.00 | 87 | 1013.2 |
| 20260901164507 | 59 | 271 | 1.0 | 49.0 | 0.00 | 0.00 | 0.00 | 87 | 1013.2 |
| 20260901164004 | 59 | 285 | 4.0 | 26.0 | 0.00 | 0.00 | 0.00 | 85 | 1013.2 |
| 20260901163513 | 59 | 336 | 4.0 | 9.0 | 0.00 | 0.00 | 0.00 | 84 | 1013.2 |
| 20260901163010 | 60 | 301 | 3.0 | 9.0 | 0.00 | 0.00 | 0.00 | 83 | 1013.3 |
| 20260901162506 | 59 | 306 | 3.0 | 8.0 | 0.00 | 0.00 | 0.00 | 83 | 1013.2 |
| 20260901162009 | 60 | 300 | 2.0 | 6.0 | 0.00 | 0.00 | 0.00 | 83 | 1013.2 |
| 20260901161532 | 60 | 288 | 2.0 | 6.0 | 0.00 | 0.00 | 0.00 | 82 | 1013.2 |
| 20260901161012 | 59 | 277 | 0.0 | 6.0 | 0.00 | 0.00 | 0.00 | 83 | 1013.2 |
| 20260901160514 | 59 | 295 | 2.0 | 6.0 | 0.00 | 0.00 | 0.00 | 83 | 1013.1 |
| 20260901160035 | 59 | 330 | 2.0 | 6.0 | 0.00 | 0.00 | 0.00 | 83 | 1013.1 |
| 20260901155517 | 59 | 345 | 0.0 | 5.0 | 0.00 | 0.00 | 0.00 | 83 | 1013.2 |
| 20260901155018 | 59 | 32 | 1.0 | 4.0 | 0.00 | 0.00 | 0.00 | 82 | 1013.1 |
| 20260901154530 | 59 | 318 | 1.0 | 4.0 | 0.00 | 0.00 | 0.00 | 82 | 1013.1 |
| 20260901154016 | 59 | 290 | 2.0 | 6.0 | 0.00 | 0.00 | 0.00 | 82 | 1013.1 |
| 20260901153505 | 59 | 300 | 1.0 | 6.0 | 0.00 | 0.00 | 0.00 | 81 | 1013.2 |
| 20260901153007 | 60 | 278 | 1.0 | 6.0 | 0.00 | 0.00 | 0.00 | 81 | 1013.2 |
| 20260901152506 | 60 | 282 | 1.0 | 9.0 | 0.00 | 0.00 | 0.00 | 80 | 1013.2 |
| 20260901152008 | 60 | 281 | 3.0 | 9.0 | 0.00 | 0.00 | 0.00 | 80 | 1013.1 |
| 20260901151512 | 60 | 311 | 2.0 | 8.0 | 0.00 | 0.00 | 0.00 | 79 | 1013.0 |
| 20260901151010 | 60 | 294 | 4.0 | 8.0 | 0.00 | 0.00 | 0.00 | 79 | 1012.9 |
| 20260901150513 | 60 | 305 | 2.0 | 7.0 | 0.00 | 0.00 | 0.00 | 78 | 1012.9 |
| 20260901150022 | 60 | 289 | 2.0 | 8.0 | 0.00 | 0.00 | 0.00 | 78 | 1012.8 |
| 20260901145510 | 60 | 291 | 2.0 | 8.0 | 0.00 | 0.00 | 0.00 | 78 | 1012.8 |
| 20260901145011 | 60 | 319 | 2.0 | 8.0 | 0.00 | 0.00 | 0.00 | 77 | 1012.8 |
| 20260901144526 | 60 | 238 | 2.0 | 7.0 | 0.00 | 0.00 | 0.00 | 77 | 1012.7 |
| 20260901144013 | 60 | 307 | 2.0 | 7.0 | 0.00 | 0.00 | 0.00 | 77 | 1012.7 |
| 20260901143516 | 60 | 304 | 1.0 | 4.0 | 0.00 | 0.00 | 0.00 | 77 | 1012.7 |
| 20260901143032 | 60 | 310 | 0.0 | 7.0 | 0.00 | 0.00 | 0.00 | 77 | 1012.7 |
| 20260901142520 | 60 | 291 | 4.0 | 7.0 | 0.00 | 0.00 | 0.00 | 77 | 1012.7 |
| 20260901142016 | 60 | 278 | 1.0 | 3.0 | 0.00 | 0.00 | 0.00 | 77 | 1012.7 |
| 20260901141508 | 60 | 311 | 1.0 | 3.0 | 0.00 | 0.00 | 0.00 | 77 | 1012.7 |
| 20260901141009 | 60 | 295 | 0.0 | 3.0 | 0.00 | 0.00 | 0.00 | 77 | 1012.6 |
| 20260901140517 | 60 | 285 | 1.0 | 3.0 | 0.00 | 0.00 | 0.00 | 77 | 1012.6 |
| 20260901140015 | 60 | 308 | 1.0 | 5.0 | 0.00 | 0.00 | 0.00 | 77 | 1012.5 |
| 20260901135510 | 60 | 319 | 2.0 | 5.0 | 0.00 | 0.00 | 0.00 | 77 | 1012.5 |
| 20260901135010 | 60 | 295 | 2.0 | 4.0 | 0.00 | 0.00 | 0.00 | 78 | 1012.6 |
| 20260901134531 | 60 | 334 | 1.0 | 3.0 | 0.00 | 0.00 | 0.00 | 78 | 1012.5 |
| 20260901134012 | 60 | 281 | 2.0 | 3.0 | 0.00 | 0.00 | 0.00 | 78 | 1012.4 |
| 20260901133516 | 60 | 309 | 0.0 | 3.0 | 0.00 | 0.00 | 0.00 | 78 | 1012.5 |
| 20260901133030 | 60 | 201 | 0.0 | 3.0 | 0.00 | 0.00 | 0.00 | 78 | 1012.5 |
| 20260901132512 | 60 | 327 | 0.0 | 3.0 | 0.00 | 0.00 | 0.00 | 78 | 1012.5 |
| 20260901132014 | 60 | 308 | 0.0 | 4.0 | 0.00 | 0.00 | 0.00 | 78 | 1012.4 |
| 20260901131534 | 60 | 291 | 2.0 | 4.0 | 0.00 | 0.00 | 0.00 | 78 | 1012.4 |
| 20260901131017 | 60 | 272 | 1.0 | 3.0 | 0.00 | 0.00 | 0.00 | 78 | 1012.4 |
| 20260901130518 | 60 | 239 | 0.0 | 3.0 | 0.00 | 0.00 | 0.00 | 78 | 1012.4 |
| 20260901130033 | 60 | 301 | 0.0 | 3.0 | 0.00 | 0.00 | 0.00 | 79 | 1012.4 |
| 20260901125508 | 59 | 287 | 0.0 | 2.0 | 0.00 | 0.00 | 0.00 | 79 | 1012.4 |
| 20260901125007 | 59 | 296 | 1.0 | 2.0 | 0.00 | 0.00 | 0.00 | 79 | 1012.3 |
| 20260901124517 | 59 | 292 | 0.0 | 3.0 | 0.00 | 0.00 | 0.00 | 79 | 1012.3 |
| 20260901124012 | 59 | 209 | 1.0 | 3.0 | 0.00 | 0.00 | 0.00 | 79 | 1012.3 |
| 20260901123516 | 59 | 357 | 0.0 | 3.0 | 0.00 | 0.00 | 0.00 | 79 | 1012.3 |
| 20260901123023 | 59 | 345 | 0.0 | 4.0 | 0.00 | 0.00 | 0.00 | 79 | 1012.3 |
| 20260901122512 | 59 | 256 | 0.0 | 5.0 | 0.00 | 0.00 | 0.00 | 79 | 1012.4 |
| 20260901122014 | 59 | 251 | 1.0 | 5.0 | 0.00 | 0.00 | 0.00 | 79 | 1012.4 |
| 20260901121528 | 59 | 310 | 2.0 | 5.0 | 0.00 | 0.00 | 0.00 | 80 | 1012.4 |
| 20260901121014 | 59 | 317 | 1.0 | 4.0 | 0.00 | 0.00 | 0.00 | 80 | 1012.4 |
| 20260901120520 | 59 | 303 | 0.0 | 2.0 | 0.00 | 0.00 | 0.00 | 80 | 1012.4 |
| 20260901120031 | 59 | 299 | 0.0 | 2.0 | 0.00 | 0.00 | 0.00 | 80 | 1012.4 |
| 20260901115517 | 59 | 294 | 0.0 | 6.0 | 0.00 | 0.00 | 0.00 | 80 | 1012.4 |
| 20260901115023 | 59 | 200 | 0.0 | 6.0 | 0.00 | 0.00 | 0.00 | 80 | 1012.4 |
| 20260901114533 | 59 | 304 | 1.0 | 4.0 | 0.00 | 0.00 | 0.00 | 80 | 1012.4 |
| 20260901114019 | 58 | 197 | 1.0 | 6.0 | 0.00 | 0.00 | 0.00 | 80 | 1012.4 |
| 20260901113514 | 58 | 314 | 1.0 | 6.0 | 0.00 | 0.00 | 0.00 | 81 | 1012.4 |
| 20260901113019 | 58 | 233 | 0.0 | 5.0 | 0.00 | 0.00 | 0.00 | 81 | 1012.4 |
| 20260901112511 | 58 | 337 | 0.0 | 4.0 | 0.00 | 0.00 | 0.00 | 81 | 1012.3 |
| 20260901112015 | 58 | 288 | 2.0 | 6.0 | 0.00 | 0.00 | 0.00 | 81 | 1012.3 |
| 20260901111525 | 58 | 171 | 1.0 | 6.0 | 0.00 | 0.00 | 0.00 | 81 | 1012.2 |
| 20260901111012 | 58 | 251 | 0.0 | 4.0 | 0.00 | 0.00 | 0.00 | 80 | 1012.2 |
| 20260901110516 | 58 | 257 | 0.0 | 4.0 | 0.00 | 0.00 | 0.00 | 80 | 1012.2 |
| 20260901110028 | 58 | 233 | 1.0 | 4.0 | 0.00 | 0.00 | 0.00 | 80 | 1012.2 |
| 20260901105514 | 59 | 276 | 0.0 | 4.0 | 0.00 | 0.00 | 0.00 | 80 | 1012.2 |
| 20260901105017 | 59 | 48 | 1.0 | 6.0 | 0.00 | 0.00 | 0.00 | 80 | 1012.2 |
| 20260901104533 | 59 | 294 | 1.0 | 6.0 | 0.00 | 0.00 | 0.00 | 80 | 1012.2 |
| 20260901104018 | 59 | 239 | 0.0 | 2.0 | 0.00 | 0.00 | 0.00 | 80 | 1012.1 |
| 20260901103517 | 59 | 251 | 0.0 | 4.0 | 0.00 | 0.00 | 0.00 | 79 | 1012.1 |
| 20260901103033 | 59 | 305 | 1.0 | 7.0 | 0.00 | 0.00 | 0.00 | 79 | 1012.1 |
| 20260901102522 | 59 | 305 | 2.0 | 7.0 | 0.00 | 0.00 | 0.00 | 79 | 1012.1 |
| 20260901102018 | 59 | 306 | 1.0 | 6.0 | 0.00 | 0.00 | 0.00 | 78 | 1012.0 |
| 20260901101519 | 59 | 295 | 1.0 | 7.0 | 0.00 | 0.00 | 0.00 | 78 | 1012.0 |
| 20260901101013 | 59 | 299 | 1.0 | 7.0 | 0.00 | 0.00 | 0.00 | 78 | 1012.0 |
| 20260901100517 | 60 | 291 | 2.0 | 5.0 | 0.00 | 0.00 | 0.00 | 78 | 1012.0 |
| 20260901100024 | 60 | 176 | 0.0 | 5.0 | 0.00 | 0.00 | 0.00 | 78 | 1012.0 |
| 20260901095513 | 60 | 295 | 3.0 | 6.0 | 0.00 | 0.00 | 0.00 | 77 | 1012.0 |
| 20260901095017 | 60 | 319 | 2.0 | 8.0 | 0.00 | 0.00 | 0.00 | 77 | 1011.9 |
| 20260901094528 | 60 | 323 | 0.0 | 9.0 | 0.00 | 0.00 | 0.00 | 77 | 1012.0 |
| 20260901094016 | 60 | 296 | 4.0 | 9.0 | 0.00 | 0.00 | 0.00 | 77 | 1011.9 |
| 20260901093517 | 60 | 295 | 2.0 | 6.0 | 0.00 | 0.00 | 0.00 | 77 | 1011.8 |
| 20260901093032 | 60 | 314 | 1.0 | 5.0 | 0.00 | 0.00 | 0.00 | 77 | 1011.7 |
| 20260901092519 | 60 | 284 | 3.0 | 5.0 | 0.00 | 0.00 | 0.00 | 77 | 1011.7 |
| 20260901092017 | 60 | 300 | 2.0 | 6.0 | 0.00 | 0.00 | 0.00 | 77 | 1011.6 |
| 20260901091503 | 60 | 291 | 1.0 | 6.0 | 0.00 | 0.00 | 0.00 | 77 | 1011.4 |
| 20260901091005 | 60 | 297 | 0.0 | 2.0 | 0.00 | 0.00 | 0.00 | 77 | 1011.4 |
| 20260901090503 | 60 | 284 | 0.0 | 3.0 | 0.00 | 0.00 | 0.00 | 76 | 1011.4 |
| 20260901090006 | 61 | 311 | 0.0 | 3.0 | 0.00 | 0.00 | 0.00 | 76 | 1011.2 |
| 20260901085503 | 61 | 311 | 1.0 | 3.0 | 0.00 | 0.00 | 0.00 | 76 | 1011.2 |
| 20260901085004 | 61 | 346 | 0.0 | 2.0 | 0.00 | 0.00 | 0.00 | 76 | 1011.2 |
| 20260901084508 | 61 | 349 | 0.0 | 2.0 | 0.00 | 0.00 | 0.00 | 76 | 1011.2 |
| 20260901084008 | 61 | 349 | 1.0 | 2.0 | 0.00 | 0.00 | 0.00 | 76 | 1011.2 |
| 20260901083504 | 61 | 7 | 0.0 | 3.0 | 0.00 | 0.00 | 0.00 | 75 | 1011.1 |
| 20260901083004 | 61 | 351 | 1.0 | 3.0 | 0.00 | 0.00 | 0.00 | 75 | 1011.1 |
| 20260901082503 | 61 | 348 | 1.0 | 2.0 | 0.00 | 0.00 | 0.00 | 75 | 1011.2 |
| 20260901082003 | 61 | 315 | 0.0 | 3.0 | 0.00 | 0.00 | 0.00 | 75 | 1011.3 |
| 20260901081504 | 62 | 335 | 1.0 | 5.0 | 0.00 | 0.00 | 0.00 | 75 | 1011.3 |
| 20260901081005 | 62 | 351 | 1.0 | 5.0 | 0.00 | 0.00 | 0.00 | 75 | 1011.2 |
| 20260901080503 | 62 | 25 | 1.0 | 6.0 | 0.00 | 0.00 | 0.00 | 74 | 1011.3 |
| 20260901080006 | 62 | 288 | 0.0 | 9.0 | 0.00 | 0.00 | 0.00 | 74 | 1011.2 |
| 20260901075504 | 62 | 294 | 3.0 | 9.0 | 0.00 | 0.00 | 0.00 | 74 | 1011.1 |
| 20260901075005 | 62 | 325 | 2.0 | 7.0 | 0.00 | 0.00 | 0.00 | 74 | 1011.0 |
| 20260901074505 | 62 | 276 | 2.0 | 7.0 | 0.00 | 0.00 | 0.00 | 73 | 1011.0 |
| 20260901074004 | 63 | 124 | 2.0 | 8.0 | 0.00 | 0.00 | 0.00 | 73 | 1010.9 |
| 20260901073504 | 63 | 348 | 2.0 | 8.0 | 0.00 | 0.00 | 0.00 | 73 | 1010.9 |
| 20260901073004 | 63 | 276 | 1.0 | 7.0 | 0.00 | 0.00 | 0.00 | 73 | 1010.9 |
| 20260901072506 | 63 | 269 | 2.0 | 10.0 | 0.00 | 0.00 | 0.00 | 72 | 1010.8 |
| 20260901072004 | 64 | 302 | 5.0 | 10.0 | 0.00 | 0.00 | 0.00 | 72 | 1010.7 |
| 20260901071504 | 64 | 301 | 4.0 | 11.0 | 0.00 | 0.00 | 0.00 | 72 | 1010.6 |
| 20260901071005 | 64 | 293 | 2.0 | 11.0 | 0.00 | 0.00 | 0.00 | 71 | 1010.7 |
| 20260901070504 | 64 | 335 | 5.0 | 10.0 | 0.00 | 0.00 | 0.00 | 71 | 1010.6 |
| 20260901070004 | 65 | 162 | 4.0 | 12.0 | 0.00 | 0.00 | 0.00 | 70 | 1010.5 |
| 20260901065504 | 65 | 155 | 4.0 | 12.0 | 0.00 | 0.00 | 0.00 | 70 | 1010.4 |
| 20260901065006 | 65 | 268 | 2.0 | 10.0 | 0.00 | 0.00 | 0.00 | 70 | 1010.3 |
| 20260901064505 | 65 | 301 | 4.0 | 9.0 | 0.00 | 0.00 | 0.00 | 69 | 1010.1 |
| 20260901064006 | 66 | 322 | 3.0 | 9.0 | 0.00 | 0.00 | 0.00 | 69 | 1010.1 |
| 20260901063503 | 66 | 257 | 3.0 | 7.0 | 0.00 | 0.00 | 0.00 | 69 | 1010.0 |
| 20260901063012 | 66 | 296 | 1.0 | 6.0 | 0.00 | 0.00 | 0.00 | 68 | 1009.9 |
| 20260901062505 | 66 | 276 | 2.0 | 7.0 | 0.00 | 0.00 | 0.00 | 68 | 1009.8 |
| 20260901062003 | 67 | 297 | 3.0 | 7.0 | 0.00 | 0.00 | 0.00 | 68 | 1009.8 |
| 20260901061506 | 67 | 276 | 3.0 | 9.0 | 0.00 | 0.00 | 0.00 | 67 | 1009.7 |
| 20260901061005 | 67 | 307 | 3.0 | 9.0 | 0.00 | 0.00 | 0.00 | 67 | 1009.7 |
| 20260901060506 | 67 | 316 | 2.0 | 10.0 | 0.00 | 0.00 | 0.00 | 66 | 1009.6 |
| 20260901060007 | 68 | 303 | 4.0 | 10.0 | 0.00 | 0.00 | 0.00 | 65 | 1009.5 |
| 20260901055506 | 68 | 290 | 2.0 | 7.0 | 0.00 | 0.00 | 0.00 | 65 | 1009.5 |
| 20260901055006 | 69 | 326 | 3.0 | 6.0 | 0.00 | 0.00 | 0.00 | 64 | 1009.5 |
| 20260901054507 | 69 | 287 | 3.0 | 9.0 | 0.00 | 0.00 | 0.00 | 64 | 1009.5 |
| 20260901054007 | 69 | 300 | 3.0 | 9.0 | 0.00 | 0.00 | 0.00 | 63 | 1009.5 |
| 20260901053504 | 69 | 285 | 1.0 | 5.0 | 0.00 | 0.00 | 0.00 | 63 | 1009.5 |
| 20260901053007 | 70 | 285 | 2.0 | 5.0 | 0.00 | 0.00 | 0.00 | 62 | 1009.4 |
| 20260901052506 | 70 | 274 | 1.0 | 3.0 | 0.00 | 0.00 | 0.00 | 62 | 1009.4 |
| 20260901052007 | 70 | 286 | 1.0 | 3.0 | 0.00 | 0.00 | 0.00 | 61 | 1009.4 |
| 20260901051506 | 71 | 287 | 1.0 | 3.0 | 0.00 | 0.00 | 0.00 | 61 | 1009.4 |
| 20260901051006 | 71 | 289 | 1.0 | 3.0 | 0.00 | 0.00 | 0.00 | 61 | 1009.3 |
| 20260901050504 | 71 | 282 | 1.0 | 5.0 | 0.00 | 0.00 | 0.00 | 60 | 1009.2 |
| 20260901050008 | 71 | 289 | 2.0 | 5.0 | 0.00 | 0.00 | 0.00 | 60 | 1009.2 |
| 20260901045506 | 70 | 296 | 1.0 | 3.0 | 0.00 | 0.00 | 0.00 | 61 | 1009.2 |
| 20260901045010 | 70 | 316 | 0.0 | 0.0 | 0.00 | 0.00 | 0.00 | 61 | 1009.1 |
| 20260901044513 | 69 | 75 | 0.0 | 0.0 | 0.00 | 0.00 | 0.00 | 62 | 1009.0 |
| 20260901044007 | 69 | 275 | 0.0 | 0.0 | 0.00 | 0.00 | 0.00 | 62 | 1009.0 |
| 20260901043506 | 69 | 275 | 0.0 | 0.0 | 0.00 | 0.00 | 0.00 | 62 | 1008.9 |
| 20260901043014 | 69 | 275 | 0.0 | 0.0 | 0.00 | 0.00 | 0.00 | 62 | 1008.7 |
| 20260901042513 | 69 | 275 | 0.0 | 0.0 | 0.00 | 0.00 | 0.00 | 61 | 1008.7 |
| 20260901042007 | 70 | 276 | 0.0 | 0.0 | 0.00 | 0.00 | 0.00 | 61 | 1008.6 |
| 20260901041508 | 70 | 275 | 0.0 | 0.0 | 0.00 | 0.00 | 0.00 | 61 | 1008.6 |
| 20260901041008 | 71 | 276 | 0.0 | 0.0 | 0.00 | 0.00 | 0.00 | 60 | 1008.5 |
| 20260901040507 | 71 | 276 | 0.0 | 0.0 | 0.00 | 0.00 | 0.00 | 59 | 1008.5 |
| 20260901040011 | 71 | 275 | 0.0 | 0.0 | 0.00 | 0.00 | 0.00 | 58 | 1008.3 |
| 20260901035508 | 72 | 275 | 0.0 | 0.0 | 0.00 | 0.00 | 0.00 | 57 | 1008.2 |
| 20260901035006 | 72 | 275 | 0.0 | 0.0 | 0.00 | 0.00 | 0.00 | 56 | 1008.1 |
| 20260901034513 | 72 | 276 | 0.0 | 0.0 | 0.00 | 0.00 | 0.00 | 56 | 1008.1 |
| 20260901034009 | 73 | 275 | 0.0 | 0.0 | 0.00 | 0.00 | 0.00 | 54 | 1008.1 |
| 20260901033508 | 74 | 275 | 0.0 | 0.0 | 0.00 | 0.00 | 0.00 | 54 | 1008.0 |
| 20260901033012 | 74 | 275 | 0.0 | 1.0 | 0.00 | 0.00 | 0.00 | 53 | 1008.0 |
| 20260901032508 | 75 | 275 | 0.0 | 1.0 | 0.00 | 0.00 | 0.00 | 52 | 1007.9 |
| 20260901032010 | 75 | 276 | 0.0 | 1.0 | 0.00 | 0.00 | 0.00 | 51 | 1007.9 |
| 20260901031509 | 76 | 275 | 0.0 | 0.0 | 0.00 | 0.00 | 0.00 | 50 | 1007.8 |
| 20260901031011 | 76 | 275 | 0.0 | 0.0 | 0.00 | 0.00 | 0.00 | 49 | 1007.8 |
| 20260901030509 | 77 | 275 | 0.0 | 0.0 | 0.00 | 0.00 | 0.00 | 48 | 1007.8 |
| 20260901030017 | 78 | 276 | 0.0 | 1.0 | 0.00 | 0.00 | 0.00 | 47 | 1007.8 |
| 20260901025509 | 78 | 275 | 0.0 | 3.0 | 0.00 | 0.00 | 0.00 | 47 | 1007.8 |
| 20260901025011 | 79 | 228 | 0.0 | 3.0 | 0.00 | 0.00 | 0.00 | 46 | 1007.9 |
| 20260901024513 | 79 | 288 | 0.0 | 3.0 | 0.00 | 0.00 | 0.00 | 46 | 1007.8 |
| 20260901024009 | 79 | 288 | 0.0 | 7.0 | 0.00 | 0.00 | 0.00 | 45 | 1007.9 |
| 20260901023510 | 80 | 281 | 1.0 | 7.0 | 0.00 | 0.00 | 0.00 | 44 | 1007.8 |
| 20260901023012 | 80 | 280 | 2.0 | 5.0 | 0.00 | 0.00 | 0.00 | 43 | 1007.7 |
| 20260901022509 | 80 | 218 | 1.0 | 6.0 | 0.00 | 0.00 | 0.00 | 42 | 1007.7 |
| 20260901022014 | 81 | 304 | 2.0 | 6.0 | 0.00 | 0.00 | 0.00 | 42 | 1007.7 |
| 20260901021512 | 81 | 294 | 2.0 | 5.0 | 0.00 | 0.00 | 0.00 | 41 | 1007.6 |
| 20260901021008 | 82 | 297 | 2.0 | 5.0 | 0.00 | 0.00 | 0.00 | 41 | 1007.6 |
| 20260901020513 | 82 | 322 | 2.0 | 5.0 | 0.00 | 0.00 | 0.00 | 41 | 1007.5 |
| 20260901020036 | 82 | 316 | 2.0 | 5.0 | 0.00 | 0.00 | 0.00 | 40 | 1007.6 |
| 20260901015511 | 82 | 288 | 2.0 | 8.0 | 0.00 | 0.00 | 0.00 | 40 | 1007.5 |
| 20260901015009 | 83 | 302 | 4.0 | 8.0 | 0.00 | 0.00 | 0.00 | 40 | 1007.4 |
| 20260901014516 | 83 | 322 | 3.0 | 7.0 | 0.00 | 0.00 | 0.00 | 40 | 1007.4 |
| 20260901014008 | 83 | 304 | 3.0 | 7.0 | 0.00 | 0.00 | 0.00 | 40 | 1007.4 |
| 20260901013510 | 84 | 276 | 1.0 | 5.0 | 0.00 | 0.00 | 0.00 | 40 | 1007.4 |
| 20260901013016 | 83 | 317 | 2.0 | 7.0 | 0.00 | 0.00 | 0.00 | 40 | 1007.4 |
| 20260901012513 | 83 | 321 | 2.0 | 8.0 | 0.00 | 0.00 | 0.00 | 41 | 1007.5 |
| 20260901012014 | 83 | 309 | 2.0 | 8.0 | 0.00 | 0.00 | 0.00 | 41 | 1007.5 |
| 20260901011529 | 83 | 287 | 3.0 | 8.0 | 0.00 | 0.00 | 0.00 | 41 | 1007.6 |
| 20260901011009 | 84 | 314 | 4.0 | 6.0 | 0.00 | 0.00 | 0.00 | 40 | 1007.6 |
| 20260901010512 | 84 | 290 | 2.0 | 9.0 | 0.00 | 0.00 | 0.00 | 41 | 1007.5 |
| 20260901010018 | 84 | 290 | 4.0 | 9.0 | 0.00 | 0.00 | 0.00 | 40 | 1007.5 |
| 20260901005512 | 84 | 231 | 4.0 | 9.0 | 0.00 | 0.00 | 0.00 | 40 | 1007.5 |
| 20260901005013 | 85 | 328 | 3.0 | 9.0 | 0.00 | 0.00 | 0.00 | 40 | 1007.5 |
| 20260901004522 | 85 | 285 | 4.0 | 8.0 | 0.00 | 0.00 | 0.00 | 40 | 1007.5 |
| 20260901004010 | 85 | 304 | 3.0 | 6.0 | 0.00 | 0.00 | 0.00 | 40 | 1007.6 |
| 20260901003516 | 86 | 194 | 1.0 | 7.0 | 0.00 | 0.00 | 0.00 | 40 | 1007.6 |
| 20260901003018 | 85 | 302 | 3.0 | 7.0 | 0.00 | 0.00 | 0.00 | 40 | 1007.6 |
| 20260901002511 | 86 | 264 | 3.0 | 7.0 | 0.00 | 0.00 | 0.00 | 40 | 1007.6 |
| 20260901002014 | 86 | 249 | 2.0 | 7.0 | 0.00 | 0.00 | 0.00 | 39 | 1007.6 |
| 20260901001510 | 86 | 291 | 2.0 | 7.0 | 0.00 | 0.00 | 0.00 | 39 | 1007.6 |
| 20260901001007 | 86 | 323 | 1.0 | 6.0 | 0.00 | 0.00 | 0.00 | 37 | 1007.6 |
| 20260901000506 | 86 | 289 | 1.0 | 6.0 | 0.00 | 0.00 | 0.00 | 36 | 1007.7 |
| 20260901000011 | 86 | 358 | 3.0 | 6.0 | 0.00 | 0.00 | 0.00 | 36 | 1007.7 |
| 20260831235507 | 87 | 317 | 2.0 | 6.0 | 0.00 | 0.00 | 0.00 | 35 | 1007.7 |
| 20260831235007 | 87 | 72 | 1.0 | 6.0 | 0.00 | 0.00 | 0.00 | 35 | 1007.7 |
| 20260831234510 | 86 | 48 | 3.0 | 6.0 | 0.00 | 0.00 | 0.00 | 35 | 1007.7 |